Location: Pinhead Observatory
(34.4473°N, 118.1985°W)
Time: 19:42:55
(UTC-07:00)

CZ-4C R/B - Visible Passes

Search period start: 25 June 2016 00:00
Search period end: 05 July 2016 00:00
Orbit: 741 x 1261 km, 63.4° (Epoch: 24 June)

Date Brightness Start Highest point End Pass type
(mag) Time Alt. Az. Time Alt. Az. Time Alt. Az.
25 Jun 5.1 00:27:08 10° N 00:31:20 16° NE 00:35:45 10° ENE visible
25 Jun 3.1 02:13:48 10° NNW 02:21:04 71° ENE 02:25:38 27° SE visible
25 Jun 4.0 04:03:43 10° WNW 04:09:14 23° WSW 04:10:39 21° WSW visible
26 Jun 4.3 00:59:29 10° N 01:05:41 31° NE 01:11:13 14° ESE visible
26 Jun 2.9 02:47:27 10° NW 02:54:38 59° WSW 02:56:17 50° SSW visible
26 Jun 5.2 23:46:18 10° N 23:49:40 14° NE 23:53:11 10° ENE visible
27 Jun 3.3 01:32:29 10° NNW 01:39:38 59° ENE 01:42:19 40° ESE visible
27 Jun 3.8 03:21:52 10° NW 03:27:25 27° WSW 03:27:25 27° WSW visible
28 Jun 4.5 00:18:19 10° N 00:24:08 26° NE 00:28:37 16° E visible
28 Jun 2.8 02:05:59 10° NW 02:13:17 71° WSW 02:13:44 69° SW visible
28 Jun 5.2 23:05:46 10° NNE 23:07:59 11° NE 23:10:15 10° NE visible
29 Jun 3.5 00:51:12 10° NNW 00:58:11 50° NE 01:00:14 41° E visible
29 Jun 3.8 02:40:09 10° NW 02:45:21 32° W 02:45:21 32° W visible
29 Jun 4.6 23:37:13 10° N 23:42:34 22° NE 23:46:52 14° E visible
30 Jun 2.8 01:24:33 10° NNW 01:31:54 84° WSW 01:32:00 84° SW visible
30 Jun 4.8 03:16:00 10° WNW 03:17:08 12° W 03:17:08 12° W visible
01 Jul 3.7 00:09:56 10° NNW 00:16:43 42° NE 00:18:45 36° E visible
01 Jul 3.6 01:58:31 10° NW 02:03:54 38° W 02:03:54 38° W visible
01 Jul 4.7 22:56:10 10° N 23:00:58 19° NE 23:05:36 11° E visible
02 Jul 2.8 00:43:11 10° NNW 00:50:30 82° ENE 00:50:45 81° E visible
02 Jul 4.6 02:33:41 10° WNW 02:35:53 16° W 02:35:53 16° W visible
02 Jul 3.9 23:28:43 10° NNW 23:35:13 35° NE 23:37:40 29° E visible
03 Jul 3.4 01:16:58 10° NW 01:22:49 46° W 01:22:49 46° W visible
03 Jul 4.8 22:15:13 10° N 22:19:20 16° NE 22:23:40 10° ENE visible
04 Jul 2.9 00:01:50 10° NNW 00:09:05 69° ENE 00:09:50 65° E visible
04 Jul 4.5 01:51:41 10° WNW 01:54:59 20° W 01:54:59 20° W visible
04 Jul 4.1 22:47:32 10° N 22:53:42 30° NE 22:56:52 23° E visible
